GW1174 Weather Reports


time (UTC)temp
C
wind
direction
speed
KPH
gust
KPH
rain 1hr
cm
rain 24hr
cm
rain mn
cm
humidity
%
barometer
mb
20260510222516 13 0.0 0.0 0.00 0.00 0.00 64 1005.6
20260510221516 14 0.0 1.6 0.00 0.00 0.00 63 1005.6
20260510220516 14 0.0 3.2 0.00 0.00 0.00 62 1005.8
20260510215517 14 0.0 1.6 0.00 0.00 0.00 62 1005.9
20260510214517 15 0.0 1.6 0.00 0.00 0.00 61 1006.1
20260510213517 15 90 1.6 6.4 0.00 0.00 0.00 61 1006.2
20260510212517 15 158 1.6 4.8 0.00 0.00 0.00 62 1006.2
20260510211517 15 0.0 1.6 0.00 0.00 0.00 63 1006.3
20260510210517 15 0.0 1.6 0.00 0.00 0.00 64 1006.3
20260510205517 15 0.0 3.2 0.00 0.00 0.00 64 1006.6
20260510204537 15 0.0 0.0 0.00 0.00 0.00 64 1006.6
20260510203517 15 0.0 3.2 0.00 0.00 0.00 65 1006.6
20260510202517 15 0.0 3.2 0.00 0.00 0.00 65 1006.7
20260510201517 15 0.0 0.0 0.00 0.00 0.00 65 1006.8
20260510200517 15 0.0 0.0 0.00 0.00 0.00 65 1006.8
20260510195557 14 0.0 0.0 0.00 0.00 0.00 65 1006.9
20260510194517 14 0.0 0.0 0.00 0.00 0.00 65 1006.9
20260510193517 15 0.0 0.0 0.00 0.00 0.00 64 1006.9
20260510192517 15 0.0 0.0 0.00 0.00 0.00 63 1006.9
20260510191517 15 0.0 0.0 0.00 0.00 0.00 62 1006.8
20260510190537 16 0.0 0.0 0.00 0.00 0.00 60 1006.9
20260510185517 16 0.0 0.0 0.00 0.00 0.00 59 1006.9
20260510184517 16 0.0 1.6 0.00 0.00 0.00 56 1006.9
20260510183517 17 45 1.6 6.4 0.00 0.00 0.00 56 1006.6
20260510182517 17 0.0 4.8 0.00 0.00 0.00 56 1006.7
20260510181517 17 0.0 0.0 0.00 0.00 0.00 56 1006.8
20260510180517 18 0.0 1.6 0.00 0.00 0.00 54 1006.6
20260510175517 18 0.0 4.8 0.00 0.00 0.00 52 1006.6
20260510174517 18 0.0 6.4 0.00 0.00 0.00 52 1006.7
20260510173517 18 0.0 6.4 0.00 0.00 0.00 49 1006.6
20260510172517 19 90 1.6 6.4 0.00 0.00 0.00 49 1006.7
20260510171517 19 0.0 4.8 0.00 0.00 0.00 48 1006.6
20260510170521 19 0.0 3.2 0.00 0.00 0.00 48 1006.7
20260510165516 20 0.0 6.4 0.00 0.00 0.00 47 1006.8
20260510164517 20 0.0 3.2 0.00 0.00 0.00 47 1006.9
20260510163516 20 0.0 6.4 0.00 0.00 0.00 48 1007.1
20260510162517 20 90 1.6 9.7 0.00 0.00 0.00 47 1007.1
20260510161516 21 0.0 4.8 0.00 0.00 0.00 46 1007.4
20260510160517 21 113 1.6 6.4 0.00 0.00 0.00 44 1007.5
20260510155517 21 0.0 6.4 0.00 0.00 0.00 43 1007.8
20260510154516 22 0.0 4.8 0.00 0.00 0.00 42 1007.9
20260510153536 21 0.0 6.4 0.00 0.00 0.00 46 1007.9
20260510152516 22 0.0 4.8 0.00 0.00 0.00 46 1008.2
20260510151516 22 23 1.6 8.0 0.00 0.00 0.00 45 1008.2
20260510150517 22 23 1.6 6.4 0.00 0.00 0.00 42 1008.3
20260510145536 22 158 1.6 3.2 0.00 0.00 0.00 43 1008.6
20260510144516 22 270 1.6 9.7 0.00 0.00 0.00 48 1008.7
20260510143517 22 135 1.6 4.8 0.00 0.00 0.00 44 1008.9
20260510142516 22 0.0 4.8 0.00 0.00 0.00 43 1008.9
20260510141516 22 113 1.6 6.4 0.00 0.00 0.00 42 1009.0
20260510140516 23 0 1.6 4.8 0.00 0.00 0.00 47 1009.3
20260510135516 22 113 1.6 9.7 0.00 0.00 0.00 45 1009.3
20260510134516 23 90 1.6 6.4 0.00 0.00 0.00 45 1009.6
20260510133516 22 158 1.6 6.4 0.00 0.00 0.00 45 1009.8
20260510132556 22 158 1.6 4.8 0.00 0.00 0.00 46 1009.7
20260510131516 21 90 3.2 6.4 0.00 0.00 0.00 43 1009.8
20260510130516 21 90 1.6 6.4 0.00 0.00 0.00 45 1010.0
20260510125516 22 158 3.2 11.3 0.00 0.00 0.00 45 1010.2
20260510124516 21 113 3.2 9.7 0.00 0.00 0.00 43 1010.2
20260510123516 22 158 3.2 9.7 0.00 0.00 0.00 45 1010.4
20260510122516 21 90 1.6 6.4 0.00 0.00 0.00 42 1010.5
20260510121516 21 135 3.2 9.7 0.00 0.00 0.00 42 1010.6
20260510120516 21 248 3.2 6.4 0.00 0.00 0.00 48 1010.6
20260510115516 21 0 1.6 8.0 0.00 0.00 0.00 46 1010.8
20260510114516 21 158 6.4 14.5 0.00 0.00 0.00 47 1010.9
20260510113516 20 135 3.2 12.9 0.00 0.00 0.00 48 1010.9
20260510112516 21 158 1.6 14.5 0.00 0.00 0.00 47 1011.3
20260510111516 21 158 4.8 9.7 0.00 0.00 0.00 48 1011.4
20260510110516 21 158 8.0 24.1 0.00 0.00 0.00 47 1011.6
20260510105516 20 158 1.6 8.0 0.00 0.00 0.00 54 1011.6
20260510104516 19 113 1.6 8.0 0.00 0.00 0.00 51 1011.6
20260510103516 20 158 6.4 14.5 0.00 0.00 0.00 54 1011.6
20260510102516 19 135 3.2 9.7 0.00 0.00 0.00 56 1011.7
20260510101516 20 90 6.4 17.7 0.00 0.00 0.00 52 1011.8
20260510100516 20 90 3.2 11.3 0.00 0.00 0.00 53 1012.0
20260510095515 20 90 6.4 12.9 0.00 0.00 0.00 53 1012.2
20260510094516 20 158 6.4 14.5 0.00 0.00 0.00 55 1012.1
20260510093515 20 158 8.0 14.5 0.00 0.00 0.00 55 1012.4
20260510092515 20 135 3.2 6.4 0.00 0.00 0.00 55 1012.5
20260510091537 20 158 3.2 8.0 0.00 0.00 0.00 60 1012.5
20260510090537 19 180 1.6 4.8 0.00 0.00 0.00 62 1012.6
20260510085517 19 158 3.2 9.7 0.00 0.00 0.00 63 1012.6
20260510084518 18 225 3.2 6.4 0.00 0.00 0.00 65 1012.7
20260510083537 17 0.0 4.8 0.00 0.00 0.00 67 1012.8
20260510082538 17 23 3.2 8.0 0.00 0.00 0.00 65 1012.8
20260510081517 17 45 1.6 4.8 0.00 0.00 0.00 68 1013.0
20260510080518 17 0.0 6.4 0.00 0.00 0.00 68 1013.0
20260510075537 16 0.0 3.2 0.00 0.00 0.00 68 1013.1
20260510074517 16 0.0 3.2 0.00 0.00 0.00 70 1013.4
20260510073517 15 68 1.6 6.4 0.00 0.00 0.00 71 1013.3
20260510072517 15 45 3.2 6.4 0.00 0.00 0.00 70 1013.3
20260510071517 16 68 1.6 4.8 0.00 0.00 0.00 69 1013.4
20260510070517 15 0.0 3.2 0.00 0.00 0.00 70 1013.3
20260510065517 15 0.0 3.2 0.00 0.00 0.00 70 1013.4
20260510064517 14 0.0 3.2 0.00 0.00 0.00 71 1013.5
20260510063537 13 248 1.6 4.8 0.00 0.00 0.00 74 1013.7
20260510062517 13 0.0 9.7 0.00 0.00 0.00 76 1013.7
20260510061517 12 90 1.6 9.7 0.00 0.00 0.00 79 1013.7
20260510060517 11 248 1.6 4.8 0.00 0.00 0.00 83 1013.7
20260510055517 10 248 1.6 4.8 0.00 0.00 0.00 84 1013.7
20260510054537 10 180 1.6 6.4 0.00 0.00 0.00 86 1013.8
20260510053517 9 248 1.6 4.8 0.00 0.00 0.00 87 1013.9
20260510052517 8 0.0 3.2 0.00 0.00 0.00 88 1014.1
20260510051517 8 68 1.6 8.0 0.00 0.00 0.00 90 1013.9
20260510050537 8 0.0 3.2 0.00 0.00 0.00 90 1014.0
20260510045517 7 158 1.6 3.2 0.00 0.00 0.00 90 1014.2
20260510044537 7 158 1.6 3.2 0.00 0.00 0.00 89 1014.1
20260510043517 7 0.0 3.2 0.00 0.00 0.00 89 1014.1
20260510042517 7 0.0 3.2 0.00 0.00 0.00 89 1014.2
20260510041517 6 0.0 0.0 0.00 0.00 0.00 89 1014.2
20260510040517 6 0.0 1.6 0.00 0.00 0.00 89 1014.2
20260510035517 6 0.0 0.0 0.00 0.00 0.00 88 1014.3
20260510034517 7 0.0 0.0 0.00 0.00 0.00 88 1014.4
20260510033537 7 0.0 1.6 0.00 0.00 0.00 88 1014.5
20260510032540 7 0.0 3.2 0.00 0.00 0.00 87 1014.3
20260510031517 7 0.0 0.0 0.00 0.00 0.00 87 1014.4
20260510030537 7 0.0 1.6 0.00 0.00 0.00 87 1014.3
20260510025517 7 0.0 6.4 0.00 0.00 0.00 87 1014.4
20260510024517 7 0.0 4.8 0.00 0.00 0.00 86 1014.4
20260510023537 8 0.0 4.8 0.00 0.00 0.00 86 1014.6
20260510022557 8 0.0 3.2 0.00 0.00 0.00 85 1014.6
20260510021537 8 0.0 4.8 0.00 0.00 0.00 85 1014.6
20260510020517 8 0.0 6.4 0.00 0.00 0.00 85 1014.6
20260510015517 8 0 1.6 6.4 0.00 0.00 0.00 84 1014.6
20260510014517 8 68 1.6 6.4 0.00 0.00 0.00 84 1014.6
20260510013517 9 0.0 1.6 0.00 0.00 0.00 84 1014.9
20260510012517 9 248 1.6 8.0 0.00 0.00 0.00 84 1014.8
20260510011516 9 68 1.6 4.8 0.00 0.00 0.00 84 1014.7
20260510010516 9 68 1.6 6.4 0.00 0.00 0.00 83 1014.9
20260510005516 9 0.0 4.8 0.00 0.00 0.00 83 1015.1
20260510004517 9 0.0 1.6 0.00 0.00 0.00 82 1015.3
20260510003540 9 0.0 3.2 0.00 0.00 0.00 82 1015.3
20260510002517 10 0.0 3.2 0.00 0.00 0.00 82 1015.6
20260510001516 10 0.0 1.6 0.00 0.00 0.00 82 1015.5
20260510000517 10 0.0 6.4 0.00 0.00 0.00 82 1015.7
20260509235516 10 0.0 4.8 0.00 0.00 0.00 81 1015.9
20260509234537 10 68 1.6 6.4 0.00 0.00 0.00 81 1015.9
20260509233516 10 0.0 6.4 0.00 0.00 0.00 80 1016.3
20260509232516 10 0.0 3.2 0.00 0.00 0.00 79 1016.2
20260509231516 10 0.0 3.2 0.00 0.00 0.00 79 1016.2
20260509230516 11 0.0 1.6 0.00 0.00 0.00 78 1016.3
20260509225516 11 158 1.6 4.8 0.00 0.00 0.00 78 1016.2
20260509224516 11 158 1.6 8.0 0.00 0.00 0.00 78 1016.2
20260509223536 11 248 1.6 6.4 0.00 0.00 0.00 78 1016.3